Volver al catálogo

STARLINK-34000

ActivoComunicacionesVLEO
NORAD 64180·PAYLOAD·🇺🇸 United States

Lanzado May 28, 2025 desde Cape Canaveral Space Force Station

Loading…

Próximos Pases (próximas 24 horas)

TLE

ActualizadoSource: CelesTrak SupGP

Época: Sep 14, 2026, 22:56 UTC

1 64180C 25113L   26257.95604167  .00050325  00000+0  16199-2 0  2570
2 64180  53.1577 291.1337 0001223  79.5150 329.1395 15.31646251    17

Sigue STARLINK-34000 en tiempo real con AllMySat

Download on the App Store